[[{"header":{"parameterUnit":"m.s-1","parameterCategory":1,"la1":30.2991,"la2":30.254,"lo1":-89.0895,"lo2":-89.0444,"dy":0.0017,"dx":0.0017,"nx":28,"ny":28,"refTime":"2023-10-18T03:00:00:Z","depth":0,"parameterNumber":2,"parameterNumberName":"U-component_of_WINDS"},"data":[0,0,0,0,0,0,0,0,0,0,0,0,0,0,0,0,0,0,0,0,0,0,0,0,0,0,0,0,0,0,0,0,0,0,0,0,0,0,0,0,0,0,0,0,0,0,0,0,0,0,0,0,0,0,0,0,0,0,0.0391,0.039,0,0.0336,0.0335,0.0335,0.0297,0.0297,0.0297,0.0296,0.024,0.0239,0.0238,0,0,0,0,0,0,0,0,0,0,0,0,0,0.0462,0.0461,0.0391,0.039,0.039,0.0336,0.0335,0.0335,0.0297,0.0297,0.0297,0.0296,0.0241,0.0239,0.0238,0,0,0,0,0,0,0,0,0,0,0,0,0,0.0422,0.0461,0.0391,0.0365,0.0362,0.0336,0.0335,0.0334,0.0297,0.0297,0.0297,0.0296,0.0241,0.0239,0.0238,0.0234,0,0,0.0232,0.0231,0,0,0,0,0,0,0,0,0.0424,0.0419,0.0369,0.0366,0.0363,0.0323,0.034,0.0301,0.0297,0.0322,0.0296,0.0296,0.0268,0.0264,0.0255,0.0232,0.0229,0.0232,0.0231,0.023,0.0229,0,0,0,0,0,0,0,0.0427,0.0421,0.0369,0.0369,0.0365,0.0355,0.0349,0.0332,0.0298,0.032,0.0317,0.0311,0.0266,0.0257,0.0253,0.0228,0.0232,0.023,0.0229,0.0228,0.0197,0.0198,0,0,0,0,0,0,0.0434,0.0424,0.0371,0.0368,0.0393,0.0354,0.0347,0.0336,0.0298,0.0292,0.0311,0.0309,0.026,0.0255,0.0251,0.0243,0.023,0.0228,0.0227,0.0197,0.0197,0.0198,0,0,0,0,0,0,0.0436,0.043,0.0373,0.0395,0.0387,0.0353,0.0341,0.0335,0.0326,0.0292,0.0285,0.0307,0.0259,0.0254,0.0238,0.024,0.0227,0.0226,0.0197,0.0197,0.0198,0.0228,0,0,0,0,0,0,0.0438,0.0431,0.0429,0.0395,0.0386,0.0362,0.0342,0.0335,0.0322,0.0319,0.0286,0.0281,0.0259,0.0241,0.0236,0.0238,0.0224,0.0196,0.0197,0.0198,0.0227,0.0229,0.0232,0,0,0,0,0,0.0441,0.0441,0.043,0.0423,0.0384,0.0362,0.0357,0.0331,0.0323,0.0321,0.0299,0.0282,0.0241,0.024,0.0234,0.0235,0.0196,0.0197,0.0197,0.0225,0.0229,0.0232,0,0,0,0,0,0,0.0477,0.0436,0.0423,0.0412,0.0391,0.0356,0.0353,0.0336,0.0317,0.0315,0.0284,0.0277,0.0264,0.0248,0.0248,0.0229,0.0216,0.0216,0.024,0.0243,0.0245,0.0249,0.0223,0,0,0,0,0,0.0483,0.0469,0.0434,0.0428,0.0418,0.0387,0.0377,0.0359,0.0336,0.0326,0.0303,0.0281,0.0263,0.0252,0.0234,0.0224,0.0216,0.0222,0.0224,0.0227,0.0226,0.0218,0.022,0.02,0.02,0.02,0,0,0.0497,0.0473,0.0466,0.0434,0.0416,0.0401,0.038,0.0366,0.0354,0.0324,0.0308,0.029,0.0263,0.025,0.0243,0.0236,0.023,0.0227,0.023,0.0228,0.0219,0.0221,0.0223,0.02,0.02,0.02,0,0,0.0513,0.0495,0.0486,0.0468,0.0439,0.0419,0.0417,0.0384,0.0371,0.0354,0.033,0.0316,0.0286,0.0268,0.0254,0.0262,0.0245,0.0257,0.027,0.0263,0.0264,0.0265,0.0267,0.0268,0.0257,0.0257,0.0257,0,0.0534,0.0511,0.0484,0.0471,0.0457,0.0428,0.0419,0.0402,0.037,0.0361,0.0353,0.0314,0.0294,0.0275,0.0277,0.0268,0.0263,0.026,0.0266,0.0267,0.0268,0.0269,0.027,0.0259,0.0259,0.0258,0.0258,0,0.0536,0.0521,0.0518,0.0486,0.0472,0.0461,0.0431,0.042,0.0403,0.0383,0.0365,0.034,0.0315,0.031,0.0294,0.0288,0.0284,0.0272,0.0259,0.0272,0.0272,0.0272,0.0261,0.026,0.026,0.026,0,0,0.0575,0.0527,0.0526,0.0511,0.0477,0.0464,0.0451,0.0427,0.0417,0.0395,0.0383,0.0357,0.0345,0.033,0.0311,0.0304,0.031,0.0293,0.0291,0.0296,0.0301,0.0309,0.031,0.0299,0.0299,0.0299,0.0302,0,0.0585,0.056,0.0535,0.0519,0.0503,0.0475,0.0463,0.0441,0.0422,0.0405,0.0384,0.0366,0.0352,0.0342,0.0334,0.0311,0.0311,0.0311,0.0286,0.0285,0.0293,0.0311,0.032,0.0325,0.0302,0.0302,0.0302,0,0.0595,0.0573,0.0555,0.0521,0.0514,0.0504,0.0478,0.0463,0.0437,0.0423,0.0405,0.0385,0.0369,0.0358,0.0334,0.0335,0.0323,0.031,0.031,0.0306,0.0294,0.0306,0.0326,0.0326,0.0303,0.0303,0.0303,0,0.0622,0.0589,0.0573,0.0561,0.0522,0.0515,0.0498,0.0471,0.0458,0.0435,0.0426,0.0402,0.0389,0.0371,0.0344,0.0339,0.0323,0.031,0.031,0.0311,0.0307,0.0308,0.0325,0.0302,0.0302,0.0302,0.0302,0,0.0636,0.0626,0.0585,0.0576,0.0563,0.0533,0.0521,0.0502,0.0478,0.0463,0.0438,0.0425,0.0391,0.0374,0.0353,0.0336,0.033,0.0318,0.0312,0.032,0.0321,0.0311,0.031,0.0302,0.0302,0.0302,0.0302,0,0.0665,0.0637,0.0618,0.0582,0.0572,0.0564,0.0533,0.0522,0.0501,0.0483,0.0477,0.0443,0.0421,0.0393,0.0363,0.0348,0.0333,0.0325,0.0342,0.0338,0.0339,0.0339,0.0349,0.0349,0.0328,0.0328,0.0328,0,0.0675,0.0666,0.0628,0.0617,0.06,0.0582,0.0568,0.0538,0.0524,0.0492,0.0485,0.0461,0.044,0.0406,0.0379,0.0354,0.0345,0.035,0.0341,0.0348,0.0343,0.0344,0.0342,0.0352,0.0353,0.0353,0.0353,0,0.0695,0.0682,0.0662,0.0637,0.062,0.0599,0.0577,0.0569,0.0534,0.052,0.0496,0.048,0.0448,0.0424,0.0396,0.0378,0.036,0.0356,0.0355,0.0362,0.0371,0.0365,0.0347,0.0356,0.0356,0.0356,0.0355,0.0355,0.0714,0.0704,0.0675,0.0654,0.0634,0.0613,0.0601,0.0578,0.0558,0.0529,0.0513,0.049,0.0462,0.0423,0.0405,0.0386,0.038,0.0378,0.0377,0.0377,0.0378,0.0375,0.0381,0.0381,0.0381,0.0381,0.0381,0,0.0731,0.0711,0.0692,0.0661,0.0644,0.0628,0.0602,0.0588,0.0569,0.0544,0.0524,0.0497,0.0473,0.0443,0.0417,0.0408,0.0398,0.0402,0.0402,0.0398,0.0387,0.039,0.041,0.041,0.041,0.041,0.041,0.041,0.0738,0.0721,0.0704,0.0675,0.0655,0.0632,0.0619,0.0599,0.058,0.055,0.053,0.0511,0.0484,0.0456,0.0433,0.0425,0.0416,0.0422,0.0411,0.0401,0.0399,0.0396,0.0399,0.042,0.042,0.0423,0.0423,0.0423]},{"header":{"parameterUnit":"m.s-1","parameterCategory":1,"la1":30.2991,"la2":30.254,"lo1":-89.0895,"lo2":-89.0444,"dy":0.0017,"dx":0.0017,"nx":28,"ny":28,"refTime":"2023-10-18T03:00:00:Z","depth":0,"parameterNumber":3,"parameterNumberName":"V-component_of_WINDS"},"data":[0,0,0,0,0,0,0,0,0,0,0,0,0,0,0,0,0,0,0,0,0,0,0,0,0,0,0,0,0,0,0,0,0,0,0,0,0,0,0,0,0,0,0,0,0,0,0,0,0,0,0,0,0,0,0,0,0,0,3.4767,3.4768,0,3.4826,3.4827,3.4827,3.4788,3.4786,3.4784,3.4782,3.4839,3.4843,3.4846,0,0,0,0,0,0,0,0,0,0,0,0,0,3.4616,3.4619,3.4767,3.4768,3.4769,3.4826,3.4827,3.4827,3.4788,3.4786,3.4784,3.4781,3.4838,3.4842,3.4846,0,0,0,0,0,0,0,0,0,0,0,0,0,3.4679,3.462,3.4767,3.4756,3.4755,3.4826,3.4827,3.4828,3.4788,3.4786,3.4783,3.478,3.4837,3.4842,3.4847,3.493,0,0,3.4861,3.4863,0,0,0,0,0,0,0,0,3.4675,3.4685,3.4757,3.4757,3.4756,3.4797,3.4794,3.4862,3.4789,3.4776,3.4782,3.4779,3.4827,3.4833,3.4849,3.4933,3.4935,3.4862,3.4865,3.4867,3.4868,0,0,0,0,0,0,0,3.4671,3.4682,3.479,3.4758,3.4758,3.4746,3.4752,3.4807,3.4816,3.4777,3.4774,3.4782,3.4827,3.4845,3.4851,3.4936,3.4861,3.4866,3.4869,3.4871,3.5087,3.509,0,0,0,0,0,0,3.4668,3.4678,3.4788,3.4792,3.4709,3.4751,3.4758,3.4786,3.4815,3.4817,3.4784,3.478,3.4838,3.4845,3.4852,3.4949,3.4867,3.4871,3.4874,3.5084,3.5087,3.5091,0,0,0,0,0,0,3.4665,3.4679,3.4786,3.4735,3.4747,3.4757,3.4789,3.4789,3.4807,3.4821,3.4822,3.4801,3.4836,3.4846,3.491,3.4951,3.4873,3.4878,3.5081,3.5085,3.5089,3.5146,0,0,0,0,0,0,3.4661,3.4678,3.4711,3.4736,3.475,3.4845,3.4792,3.4792,3.4816,3.4811,3.4837,3.4839,3.4835,3.4903,3.4915,3.4956,3.4881,3.5077,3.5083,3.5088,3.514,3.5151,3.5161,0,0,0,0,0,3.4656,3.4724,3.4713,3.4726,3.4792,3.4847,3.4855,3.485,3.482,3.4852,3.486,3.4838,3.4945,3.491,3.4923,3.4966,3.5074,3.5081,3.5087,3.5135,3.5149,3.5161,0,0,0,0,0,0,3.4704,3.4728,3.4715,3.4794,3.4819,3.484,3.4881,3.4865,3.4899,3.4893,3.4884,3.489,3.4957,3.4968,3.493,3.5047,3.5004,3.5014,3.5037,3.505,3.506,3.5055,3.4885,0,0,0,0,0,3.4724,3.4768,3.4786,3.4853,3.4867,3.4872,3.4896,3.4889,3.4915,3.4925,3.4938,3.4962,3.5,3.5026,3.5063,3.5142,3.5145,3.5178,3.5188,3.5196,3.5204,3.5243,3.5257,3.5112,3.5112,3.5112,0,0,3.4765,3.4783,3.4812,3.4863,3.4882,3.4926,3.4881,3.493,3.4962,3.4932,3.4993,3.5003,3.503,3.5101,3.5133,3.5113,3.5245,3.5205,3.5211,3.5214,3.5251,3.5265,3.5277,3.5116,3.5115,3.5115,0,0,3.4862,3.4882,3.4939,3.4958,3.4987,3.4989,3.5003,3.5027,3.5032,3.5094,3.5072,3.5109,3.5177,3.5195,3.5214,3.5315,3.5295,3.5328,3.5381,3.542,3.5431,3.5441,3.5475,3.5487,3.5335,3.5336,3.5336,0,3.4909,3.4975,3.497,3.502,3.5042,3.5017,3.5074,3.5092,3.5131,3.5146,3.5123,3.5206,3.5222,3.5296,3.532,3.5337,3.535,3.5324,3.543,3.544,3.5449,3.5481,3.5494,3.5339,3.5339,3.5338,3.5338,0,3.503,3.5077,3.5119,3.5157,3.5184,3.5238,3.5238,3.5266,3.5257,3.5261,3.5323,3.5341,3.538,3.5397,3.5389,3.547,3.5455,3.5432,3.5388,3.5467,3.5496,3.5509,3.5344,3.5343,3.5342,3.5341,0,0,3.5159,3.5192,3.5208,3.5223,3.5253,3.5287,3.5338,3.5376,3.5399,3.5426,3.5467,3.5524,3.5501,3.5522,3.5516,3.555,3.5626,3.5521,3.5521,3.5538,3.5711,3.5728,3.5742,3.5613,3.5616,3.5618,3.5708,0,3.5255,3.5345,3.534,3.5423,3.5464,3.544,3.5484,3.5505,3.5511,3.5545,3.555,3.5589,3.5558,3.557,3.5603,3.5609,3.566,3.5603,3.5648,3.565,3.564,3.5758,3.5776,3.5861,3.572,3.5722,3.5724,0,3.538,3.5411,3.5498,3.5518,3.5535,3.5575,3.5608,3.5642,3.5665,3.5666,3.5688,3.5676,3.5725,3.5682,3.5748,3.5709,3.5727,3.5733,3.5736,3.5738,3.569,3.5761,3.5888,3.59,3.5742,3.5741,3.5739,0,3.5461,3.5525,3.5585,3.5599,3.5626,3.5653,3.5665,3.5686,3.5708,3.5737,3.575,3.5784,3.5802,3.5828,3.5824,3.5794,3.589,3.5848,3.589,3.589,3.591,3.5908,3.6039,3.5926,3.5926,3.5925,3.5925,0,3.5568,3.5622,3.5621,3.5658,3.5716,3.5709,3.5767,3.5775,3.5793,3.5829,3.5812,3.5845,3.5839,3.5873,3.587,3.5923,3.5932,3.5933,3.5931,3.5933,3.5932,3.5943,3.5936,3.5929,3.5928,3.5927,3.5927,0,3.5669,3.5671,3.5734,3.5753,3.5759,3.5801,3.5816,3.5849,3.5853,3.5898,3.5909,3.5914,3.5952,3.5951,3.5994,3.5992,3.6057,3.6049,3.6049,3.6046,3.6088,3.6083,3.6229,3.6246,3.6124,3.6125,3.6126,0,3.5736,3.5776,3.5799,3.5822,3.5836,3.5874,3.5896,3.589,3.5914,3.5942,3.5971,3.6008,3.6036,3.6098,3.6104,3.6137,3.6128,3.6177,3.6133,3.6133,3.6126,3.6123,3.6125,3.6185,3.6187,3.6188,3.6189,0,3.5853,3.5852,3.5885,3.5918,3.5945,3.5971,3.5995,3.6015,3.6011,3.6039,3.6077,3.61,3.6143,3.6179,3.621,3.622,3.6203,3.6203,3.6214,3.6215,3.6212,3.6211,3.607,3.6199,3.6198,3.6197,3.6197,3.6196,3.5937,3.597,3.5991,3.6028,3.6045,3.6067,3.6099,3.6106,3.6138,3.6174,3.6168,3.6211,3.623,3.627,3.6283,3.6315,3.6297,3.6314,3.6318,3.6322,3.6325,3.6209,3.6321,3.6321,3.632,3.632,3.632,0,3.6051,3.6063,3.6097,3.613,3.6159,3.6141,3.6166,3.619,3.6228,3.6248,3.6277,3.632,3.6353,3.6362,3.6394,3.6418,3.6411,3.6426,3.6423,3.6425,3.634,3.6326,3.6431,3.6431,3.6431,3.6431,3.6431,3.6431,3.6114,3.6169,3.6169,3.6232,3.6243,3.6285,3.63,3.6319,3.6335,3.6384,3.6412,3.6417,3.6432,3.6465,3.6494,3.6496,3.6507,3.6525,3.6523,3.6443,3.6432,3.6421,3.6408,3.6528,3.6529,3.6606,3.6606,3.6607]}]]